Location: Vancouver
(49.2500°N, 123.1330°W)
Time: 05:21:10
(UTC-08:00)

Vanguard 2 Rocket - Visible Passes

Search period start: 28 November 2014 00:00
Search period end: 08 December 2014 00:00
Orbit: 553 x 3335 km, 32.9° (Epoch: 27 November)

Date Brightness Start Highest point End Pass type
(mag) Time Alt. Az. Time Alt. Az. Time Alt. Az.
28 Nov 10.0 17:41:19 10° WSW 17:58:33 43° S 18:10:25 10° ESE visible
28 Nov 9.6 19:59:48 10° W 20:12:31 29° SSW 20:17:11 22° S visible
29 Nov 10.2 16:40:35 10° WSW 16:58:42 44° S 17:12:04 10° ESE visible
29 Nov 9.8 18:58:15 10° W 19:13:35 36° SSW 19:22:16 16° SSE visible
29 Nov 10.1 21:19:08 10° WSW 21:26:04 15° SW 21:28:12 15° SW visible
30 Nov 10.0 17:56:59 10° WSW 18:14:10 41° SSW 18:26:11 10° SE visible
30 Nov 9.9 20:16:18 10° W 20:27:42 23° SW 20:33:20 17° S visible
01 Dec 10.2 16:56:06 10° WSW 17:14:20 45° S 17:27:59 10° ESE visible
01 Dec 10.0 19:14:21 10° W 19:28:54 31° SSW 19:38:34 12° SSE visible
02 Dec 10.2 18:12:53 10° W 18:29:37 38° SSW 18:41:41 10° SE visible
02 Dec 10.2 20:33:32 10° W 20:42:39 18° SW 20:49:48 10° S visible
03 Dec 10.3 17:11:50 10° WSW 17:29:53 43° SSW 17:43:39 10° SE visible
03 Dec 10.2 19:30:50 10° W 19:44:00 25° SW 19:53:49 10° S visible
04 Dec 10.3 18:29:01 10° W 18:44:52 33° SSW 18:56:46 10° SSE visible
04 Dec 10.6 20:52:58 10° WSW 20:57:23 12° SW 21:01:20 10° SW visible
05 Dec 10.4 17:27:47 10° W 17:45:16 39° SSW 17:59:00 10° SE visible
05 Dec 10.5 19:48:01 10° W 19:58:52 19° SW 20:07:34 10° S visible
06 Dec 10.6 16:27:04 10° WSW 16:45:15 44° SSW 17:00:40 10° SE visible
06 Dec 10.5 18:45:31 10° W 18:59:54 27° SW 19:11:16 10° SSE visible
07 Dec 10.6 17:43:58 10° W 18:00:29 34° SSW 18:13:56 10° SSE visible
07 Dec 10.9 20:07:03 10° WSW 20:13:32 13° SW 20:19:18 10° SSW visible
